User: anonymous   Login
Location: Unspecified
(0.0000°N, 0.0000°E)
Time: 00:53:02
(UTC+00:00)
Language:

USA 267 - Orbit

View from above orbital plane
View from above orbital plane
View from above satellite
View from above satellite

Ground track
Ground track

The orbit data is extracted from the following two-line orbital elements,

1 41334U 16010A   19042.75613345 0.00000000  00000-0  00000-0 0    06
2 41334 122.9935 161.5538 0004000 157.5584 202.4415 13.41417673    01
Epoch (UTC): 11 February 2019 18:08:49
Eccentricity: 0.0004000
inclination: 122.9935°
perigee height: 1101 km
apogee height: 1107 km
right ascension of ascending node: 161.5538°
argument of perigee: 157.5584°
revolutions per day: 13.41417673
mean anomaly at epoch: 202.4415°
orbit number at epoch: 0

The dashed part of the orbit path shows where the satellite is in the earth's shadow,  

DLR